Regional Weather Roundup
Issued by NWS

Home | Current Version | Previous Version | Text Only | Print | Product List | Glossary On
Versions: 1 2 3 4 5 6 7 8 9 10 11 12 13 14 15 16 17 18 19 20 21 22 23 24 25 26 27 28 29 30 31 32 33 34 35 36 37 38 39 40 41 42 43 44 45 46 47 48 49 50
000
ASUS45 KABQ 261110
RWRNM
WEATHER ROUNDUP FOR NEW MEXICO
NATIONAL WEATHER SERVICE ALBUQUERQUE NM
400 AM MST MON JAN 26 2015

NOTE: "FAIR" MEANS FEW OR NO CLOUDS BELOW 12,000 FEET AGL WITH NO
       SIGNIFICANT WEATHER OR OBSTRUCTIONS TO VISION.

      THIS PRODUCT IS RELEASED AS TWO VERSIONS.  ONE VERSION NEAR
      THE TOP OF THE HOUR CONTAINING PRELIMINARY DATA FROM ALBUQUERQUE
      AND OTHER STATIONS.  A FINAL VERSION WITH ADDITIONAL DATA IS
      ISSUED ABOUT 10 MINUTES AFTER THE HOUR.

NMZ501-503-504-510>518-261200-
NORTHWEST PLATEAU/NORTHCENTRAL MOUNTAINS

CITY           SKY/WX    TMP DP  RH WIND       PRES   REMARKS
FARMINGTON     CLEAR     25  20  81 E7        30.37R WCI  17
LOS ALAMOS     CLEAR     36  22  55 N10       30.37F WCI  28
SANTA FE       PTCLDY    28  22  78 N9        30.35S WCI  19
TAOS           PTCLDY    25  18  74 N3        30.40S
ANGEL FIRE     FAIR       9   8  92 SW3       30.43S

$$
NMZ402-403-502-505>509-261200-
WESTCENTRAL MOUNTAINS/SOUTHWEST MOUNTAINS

CITY           SKY/WX    TMP DP  RH WIND       PRES   REMARKS
GALLUP         CLEAR     26  21  81 CALM      30.36F
GRANTS         CLEAR     22  20  91 W6        30.40S WCI  15
SILVER CITY    CLOUDY    32  23  69 N10       30.32S WCI  24

$$
NMZ407-409-411-412-261200-
SOUTHERN DESERTS

CITY           SKY/WX    TMP DP  RH WIND       PRES   REMARKS
LORDSBURG      FAIR      32  27  80 CALM      30.26F
DEMING         CLOUDY    31  25  78 N5        30.29F WCI  26
LAS CRUCES     CLOUDY    34  28  77 NW5       30.30F WCI  30
HOLLOMAN AFB   MOCLDY    29  25  82 E2        30.31S
ALAMOGORDO     PTCLDY    32  23  69 SE3       30.32F
T OR C         PTCLDY    34  23  64 N6        30.32R WCI  29

$$
NMZ519>523-261200-
CENTRAL VALLEYS/CENTRAL HIGHLANDS

CITY           SKY/WX    TMP DP  RH WIND       PRES   REMARKS
ALBUQUERQUE    CLEAR     36  24  62 N9        30.35F WCI  29
DOUBLE EAGLE   CLEAR     26  20  79 N3        30.35F
MORIARTY ARPT  FAIR      21  19  90 N6        30.37R WCI  13
CLINES CORNERS PTCLDY    33  21  61 NW12      30.32S WCI  24
BELEN          FAIR      27  25  91 NW6       30.35S WCI  21
SOCORRO        FAIR      32  26  80 NW8       30.35R WCI  25

$$
NMZ524>526-539-540-261200-
SOUTHCENTRAL MOUNTAINS

CITY           SKY/WX    TMP DP  RH WIND       PRES   REMARKS
RUIDOSO        CLEAR     34  18  51 W6        30.36F WCI  29

$$
NMZ527>531-261200-
NORTHEAST HIGHLANDS/NORTHEAST PLAINS

CITY           SKY/WX    TMP DP  RH WIND       PRES   REMARKS
LAS VEGAS      PTCLDY    32  20  61 N6        30.34R WCI  26
RATON          PTCLDY    25  20  81 NE6       30.30F WCI  18
CLAYTON        CLEAR     41  24  51 W14       30.22F

$$
NMZ532>537-261200-
EASTCENTRAL PLAINS

CITY           SKY/WX    TMP DP  RH WIND       PRES   REMARKS
TUCUMCARI      CLEAR     36  29  75 W9        30.26F WCI  29
CANNON AFB     PTCLDY    38  25  59 W12       30.26S WCI  31
CLOVIS AIRPORT PTCLDY    34  27  75 W10       30.26S WCI  26

$$
NMZ028-029-538-261200-
SOUTHEAST PLAINS

CITY           SKY/WX    TMP DP  RH WIND       PRES   REMARKS
ROSWELL        PTCLDY    32  27  81 NW7       30.29F WCI  26
ARTESIA        PTCLDY    34  30  86 NW8       30.31S WCI  27
CARLSBAD       PTCLDY    32  27  81 NW7       30.29S WCI  26
HOBBS          CLEAR     36  28  75 W9        30.28S WCI  29


$$



USA.gov is the U.S. government's official web portal to all federal, state and local government web resources and services.